[[{"header":{"parameterUnit":"m.s-1","parameterCategory":2,"la1":30.2991,"la2":30.254,"lo1":-89.0895,"lo2":-89.0444,"dy":0.0017,"dx":0.0017,"nx":28,"ny":28,"refTime":"2023-09-25T03:00:00:Z","depth":"0","parameterNumber":2,"parameterNumberName":"U-component_of_CURRENTS"},"data":[0,0,0,0,0,0,0,0,0,0,0,0,0,0,0,0,0,0,0,0,0,0,0,0,0,0,0,0,0,0,0,0,0,0,0,0,0,0,0,0,0,0,0,0,0,0,0,0,0,0,0,0,0,0,0,0,0,0,-0.2588,-0.2589,0,-0.2614,-0.2614,-0.2613,-0.2543,-0.2542,-0.254,-0.2539,-0.2447,-0.2446,-0.2444,0,0,0,0,0,0,0,0,0,0,0,0,0,-0.2403,-0.2407,-0.2588,-0.2589,-0.259,-0.2614,-0.2614,-0.2613,-0.2544,-0.2542,-0.254,-0.2538,-0.2447,-0.2446,-0.2444,0,0,0,0,0,0,0,0,0,0,0,0,0,-0.2454,-0.2408,-0.2588,-0.2564,-0.2563,-0.2614,-0.2614,-0.2613,-0.2544,-0.2542,-0.254,-0.2538,-0.2448,-0.2446,-0.2444,-0.2476,0,0,-0.2439,-0.2438,0,0,0,0,0,0,0,0,-0.2452,-0.246,-0.2567,-0.2566,-0.2565,-0.258,-0.2515,-0.2564,-0.2544,-0.2543,-0.2539,-0.2537,-0.2487,-0.2482,-0.2482,-0.2472,-0.2468,-0.2439,-0.2438,-0.2437,-0.2437,0,0,0,0,0,0,0,-0.2448,-0.2458,-0.259,-0.2568,-0.2567,-0.2528,-0.2532,-0.2524,-0.2518,-0.2543,-0.254,-0.2556,-0.2485,-0.2484,-0.2479,-0.2467,-0.2439,-0.2437,-0.2436,-0.2436,-0.2476,-0.2478,0,0,0,0,0,0,-0.2469,-0.2456,-0.2589,-0.2592,-0.2511,-0.2534,-0.2538,-0.2571,-0.2521,-0.2514,-0.2558,-0.2553,-0.2488,-0.2481,-0.2475,-0.2516,-0.2437,-0.2435,-0.2435,-0.2474,-0.2476,-0.2479,0,0,0,0,0,0,-0.2465,-0.2481,-0.2588,-0.2529,-0.2541,-0.254,-0.2577,-0.2573,-0.2563,-0.2535,-0.2524,-0.2552,-0.2486,-0.2478,-0.2462,-0.2511,-0.2435,-0.2433,-0.2471,-0.2475,-0.2478,-0.2593,0,0,0,0,0,0,-0.246,-0.248,-0.2499,-0.2532,-0.2546,-0.2622,-0.258,-0.2575,-0.2581,-0.2574,-0.2527,-0.2517,-0.2484,-0.2465,-0.246,-0.2507,-0.2432,-0.2469,-0.2473,-0.2477,-0.2587,-0.26,-0.2611,0,0,0,0,0,-0.2453,-0.2495,-0.25,-0.2515,-0.2576,-0.2624,-0.2626,-0.2611,-0.2583,-0.259,-0.2552,-0.2518,-0.2487,-0.2464,-0.2459,-0.2507,-0.2467,-0.2472,-0.2476,-0.2581,-0.2597,-0.2611,0,0,0,0,0,0,-0.2425,-0.2494,-0.2499,-0.2559,-0.2591,-0.2615,-0.2624,-0.2618,-0.2596,-0.2579,-0.2534,-0.2522,-0.2534,-0.2503,-0.248,-0.2532,-0.2477,-0.248,-0.2559,-0.2573,-0.2585,-0.2551,-0.243,0,0,0,0,0,-0.2434,-0.2476,-0.2533,-0.2576,-0.2597,-0.261,-0.2623,-0.2621,-0.2618,-0.2605,-0.2579,-0.2555,-0.2556,-0.2546,-0.2536,-0.2556,-0.2519,-0.2587,-0.26,-0.261,-0.258,-0.2599,-0.261,-0.2494,-0.2494,-0.2494,0,0,-0.2432,-0.2478,-0.2498,-0.2571,-0.259,-0.2613,-0.2609,-0.2641,-0.2645,-0.2601,-0.2588,-0.2594,-0.257,-0.2596,-0.26,-0.2571,-0.2627,-0.2616,-0.2625,-0.2588,-0.2605,-0.2616,-0.2626,-0.2497,-0.2497,-0.2496,0,0,-0.2426,-0.2496,-0.2507,-0.2546,-0.2595,-0.2621,-0.2634,-0.2667,-0.2664,-0.2673,-0.2654,-0.2685,-0.2661,-0.2678,-0.2675,-0.2749,-0.2694,-0.2756,-0.2786,-0.2808,-0.2817,-0.2824,-0.2801,-0.2805,-0.276,-0.2761,-0.2761,0,-0.2409,-0.2442,-0.2516,-0.2536,-0.2565,-0.2623,-0.2632,-0.2658,-0.2676,-0.2692,-0.2672,-0.2707,-0.2701,-0.275,-0.2774,-0.2778,-0.2752,-0.2735,-0.2823,-0.2829,-0.2835,-0.2809,-0.2812,-0.2767,-0.2766,-0.2765,-0.2765,0,-0.2397,-0.2425,-0.2444,-0.2489,-0.2542,-0.257,-0.2636,-0.2673,-0.2691,-0.2718,-0.2773,-0.2789,-0.2807,-0.2842,-0.2818,-0.2882,-0.2838,-0.2841,-0.2783,-0.2853,-0.2822,-0.2823,-0.2776,-0.2773,-0.2771,-0.277,0,0,-0.2324,-0.2411,-0.2407,-0.2436,-0.2519,-0.2574,-0.2614,-0.2681,-0.2725,-0.2763,-0.2804,-0.2856,-0.289,-0.289,-0.2914,-0.2935,-0.2975,-0.2896,-0.2895,-0.2867,-0.298,-0.274,-0.2717,-0.2991,-0.2992,-0.2992,-0.2945,0,-0.2265,-0.2286,-0.2355,-0.2396,-0.2419,-0.2526,-0.2579,-0.2664,-0.2724,-0.279,-0.2852,-0.29,-0.2903,-0.2937,-0.2965,-0.2967,-0.2981,-0.2984,-0.2918,-0.2915,-0.2689,-0.2712,-0.2575,-0.2501,-0.2946,-0.2946,-0.2946,0,-0.2176,-0.2227,-0.2228,-0.2372,-0.2399,-0.245,-0.2588,-0.2646,-0.2766,-0.2814,-0.2887,-0.2929,-0.2983,-0.2978,-0.3,-0.2995,-0.2982,-0.2981,-0.298,-0.2701,-0.2675,-0.2502,-0.2486,-0.2477,-0.2947,-0.2947,-0.2947,0,-0.2038,-0.2134,-0.2139,-0.2177,-0.234,-0.2393,-0.25,-0.2639,-0.2706,-0.2827,-0.2869,-0.2954,-0.2971,-0.2992,-0.2956,-0.299,-0.2938,-0.3,-0.2775,-0.2758,-0.2592,-0.2556,-0.2544,-0.3009,-0.3009,-0.3009,-0.3009,0,-0.1914,-0.1937,-0.2089,-0.2097,-0.2212,-0.2339,-0.2454,-0.2573,-0.2696,-0.2765,-0.2871,-0.2896,-0.2969,-0.2945,-0.2946,-0.2805,-0.2928,-0.2745,-0.2721,-0.2626,-0.2595,-0.2536,-0.2581,-0.3007,-0.3008,-0.3008,-0.3009,0,-0.1746,-0.1803,-0.1866,-0.2047,-0.2128,-0.2215,-0.2446,-0.2528,-0.2639,-0.2715,-0.2742,-0.2832,-0.2785,-0.28,-0.2801,-0.2738,-0.2605,-0.2604,-0.2444,-0.2397,-0.2157,-0.2213,-0.2103,-0.2051,-0.2369,-0.2363,-0.2358,0,-0.166,-0.1649,-0.1835,-0.1906,-0.1994,-0.2158,-0.2278,-0.2474,-0.2541,-0.265,-0.2656,-0.2644,-0.2588,-0.2462,-0.2369,-0.2275,-0.2358,-0.2088,-0.2128,-0.2075,-0.2127,-0.2187,-0.216,-0.1989,-0.1981,-0.1975,-0.1969,0,-0.1549,-0.1589,-0.1663,-0.1786,-0.1914,-0.2067,-0.2228,-0.2261,-0.2431,-0.2442,-0.2383,-0.2333,-0.2237,-0.204,-0.1908,-0.1868,-0.2007,-0.1943,-0.1976,-0.1857,-0.1841,-0.18,-0.2078,-0.1911,-0.1917,-0.1921,-0.1924,-0.1927,-0.1489,-0.1515,-0.1574,-0.1694,-0.1808,-0.187,-0.1909,-0.2012,-0.2013,-0.1958,-0.2032,-0.1883,-0.1801,-0.1574,-0.1521,-0.1387,-0.1543,-0.1384,-0.147,-0.1544,-0.1437,-0.1514,-0.1253,-0.1255,-0.1257,-0.1258,-0.126,0,-0.1422,-0.1436,-0.1505,-0.1578,-0.1589,-0.1717,-0.1799,-0.1755,-0.1634,-0.162,-0.15,-0.1329,-0.1175,-0.1179,-0.1057,-0.0973,-0.1038,-0.0984,-0.1131,-0.1139,-0.1276,-0.1198,-0.0805,-0.0805,-0.0805,-0.0805,-0.0805,-0.0805,-0.1384,-0.1379,-0.139,-0.1327,-0.1358,-0.1314,-0.1298,-0.1225,-0.1173,-0.0962,-0.0865,-0.0799,-0.0898,-0.0964,-0.09,-0.0852,-0.0922,-0.0822,-0.0922,-0.1119,-0.1168,-0.1215,-0.1153,-0.0756,-0.0757,-0.074,-0.074,-0.074]},{"header":{"parameterUnit":"m.s-1","parameterCategory":2,"la1":30.2991,"la2":30.254,"lo1":-89.0895,"lo2":-89.0444,"dy":0.0017,"dx":0.0017,"nx":28,"ny":28,"refTime":"2023-09-25T03:00:00:Z","depth":"0","parameterNumber":3,"parameterNumberName":"V-component_of_CURRENTS"},"data":[0,0,0,0,0,0,0,0,0,0,0,0,0,0,0,0,0,0,0,0,0,0,0,0,0,0,0,0,0,0,0,0,0,0,0,0,0,0,0,0,0,0,0,0,0,0,0,0,0,0,0,0,0,0,0,0,0,0,-0.0304,-0.0303,0,-0.0215,-0.0214,-0.0212,-0.0154,-0.0154,-0.0153,-0.0153,-0.001,-0.0007,-0.0003,0,0,0,0,0,0,0,0,0,0,0,0,0,-0.0385,-0.0384,-0.0304,-0.0303,-0.0302,-0.0215,-0.0213,-0.0212,-0.0154,-0.0154,-0.0153,-0.0153,-0.0011,-0.0007,-0.0003,0,0,0,0,0,0,0,0,0,0,0,0,0,-0.0327,-0.0384,-0.0304,-0.0264,-0.0259,-0.0215,-0.0213,-0.0212,-0.0154,-0.0154,-0.0153,-0.0153,-0.0013,-0.0007,-0.0002,0.0024,0,0,0.0014,0.0017,0,0,0,0,0,0,0,0,-0.033,-0.0324,-0.0271,-0.0266,-0.0261,-0.0196,-0.019,-0.0131,-0.0154,-0.0192,-0.0153,-0.0153,-0.0069,-0.0059,-0.0041,0.003,0.0036,0.0015,0.0018,0.002,0.0022,0,0,0,0,0,0,0,-0.0334,-0.0327,-0.0267,-0.027,-0.0264,-0.0236,-0.0228,-0.0178,-0.0132,-0.0189,-0.0185,-0.0177,-0.0065,-0.0047,-0.0037,0.0038,0.0015,0.0019,0.0023,0.0025,0.0096,0.0095,0,0,0,0,0,0,-0.0351,-0.0331,-0.027,-0.0265,-0.0297,-0.0236,-0.0226,-0.0216,-0.0133,-0.0121,-0.0178,-0.0175,-0.0056,-0.0044,-0.0032,-0.0028,0.002,0.0025,0.0028,0.0097,0.0096,0.0094,0,0,0,0,0,0,-0.0353,-0.0346,-0.0274,-0.0297,-0.0286,-0.0235,-0.0224,-0.0215,-0.0197,-0.0125,-0.0112,-0.017,-0.0055,-0.004,-0.0011,-0.002,0.0028,0.0033,0.0099,0.0097,0.0095,0.0001,0,0,0,0,0,0,-0.0355,-0.0347,-0.0351,-0.0298,-0.0286,-0.0264,-0.0225,-0.0213,-0.0194,-0.0189,-0.0114,-0.0101,-0.0054,-0.002,-0.0006,-0.0012,0.0037,0.01,0.0098,0.0095,0.0006,-0.0004,-0.0012,0,0,0,0,0,-0.0359,-0.0368,-0.0352,-0.0344,-0.029,-0.0265,-0.0256,-0.0217,-0.0194,-0.0197,-0.0155,-0.0103,-0.0026,-0.0017,0.0,-0.0005,0.0102,0.0099,0.0096,0.001,-0.0002,-0.0012,0,0,0,0,0,0,-0.0405,-0.0361,-0.0342,-0.0337,-0.0311,-0.0256,-0.0252,-0.0223,-0.019,-0.0183,-0.0115,-0.01,-0.0073,-0.0035,-0.0027,0.0005,0.0045,0.0046,-0.0025,-0.0036,-0.0045,-0.0076,0.0041,0,0,0,0,0,-0.0418,-0.0415,-0.0368,-0.0368,-0.0354,-0.0304,-0.0288,-0.0261,-0.0223,-0.0207,-0.0161,-0.0113,-0.0072,-0.0053,-0.0008,0.0008,0.004,0.0013,0.0004,-0.0004,-0.0021,-0.0005,-0.0014,0.0084,0.0084,0.0084,0,0,-0.0436,-0.0414,-0.0411,-0.0379,-0.0349,-0.0341,-0.0293,-0.0276,-0.0274,-0.0196,-0.0184,-0.0135,-0.0074,-0.0057,-0.0042,-0.0026,-0.0012,-0.0008,-0.0015,-0.0027,-0.0009,-0.0018,-0.0027,0.0082,0.0083,0.0083,0,0,-0.0466,-0.0449,-0.0449,-0.0433,-0.0399,-0.0375,-0.0374,-0.0326,-0.031,-0.0291,-0.0238,-0.0211,-0.0143,-0.0117,-0.0088,-0.0123,-0.0055,-0.01,-0.0174,-0.0158,-0.0166,-0.0173,-0.0131,-0.0134,-0.0113,-0.0113,-0.0113,0,-0.0488,-0.0482,-0.0449,-0.0445,-0.0445,-0.0395,-0.0402,-0.0379,-0.0334,-0.0335,-0.0301,-0.0235,-0.0175,-0.0168,-0.0178,-0.0143,-0.0115,-0.0135,-0.0171,-0.0177,-0.0182,-0.0138,-0.0139,-0.0118,-0.0117,-0.0117,-0.0116,0,-0.0508,-0.0509,-0.0512,-0.0495,-0.0496,-0.0496,-0.0466,-0.0467,-0.0441,-0.0415,-0.0402,-0.0337,-0.0304,-0.0277,-0.023,-0.0243,-0.0203,-0.0177,-0.0144,-0.0198,-0.0147,-0.0147,-0.0125,-0.0123,-0.0122,-0.012,0,0,-0.0534,-0.0527,-0.0526,-0.0547,-0.0526,-0.0537,-0.0546,-0.0547,-0.0564,-0.0522,-0.054,-0.0474,-0.0442,-0.0412,-0.0356,-0.0343,-0.0336,-0.0283,-0.028,-0.0244,-0.0284,-0.0195,-0.0185,-0.0317,-0.0317,-0.0318,-0.0229,0,-0.0557,-0.0575,-0.0567,-0.0613,-0.0625,-0.0617,-0.0636,-0.0638,-0.0621,-0.0627,-0.0577,-0.0555,-0.0491,-0.0473,-0.0456,-0.0361,-0.0342,-0.0361,-0.0237,-0.0233,-0.0149,-0.0185,-0.0136,-0.0048,-0.0228,-0.0228,-0.0228,0,-0.0563,-0.0588,-0.0621,-0.0686,-0.0693,-0.0721,-0.0772,-0.0778,-0.0769,-0.0752,-0.0737,-0.0683,-0.0654,-0.0588,-0.0491,-0.0505,-0.041,-0.0338,-0.0333,-0.0221,-0.0144,-0.0026,-0.004,0.0073,-0.0226,-0.0226,-0.0227,0,-0.0586,-0.0632,-0.0674,-0.0687,-0.0736,-0.0778,-0.0809,-0.0817,-0.0833,-0.0826,-0.0826,-0.0788,-0.0741,-0.0663,-0.0496,-0.05,-0.0371,-0.0355,-0.0189,-0.018,-0.0101,-0.0083,0.0005,-0.0297,-0.0297,-0.0298,-0.0298,0,-0.0601,-0.0642,-0.0697,-0.072,-0.0822,-0.0826,-0.0903,-0.0923,-0.0923,-0.0932,-0.089,-0.0867,-0.0755,-0.0656,-0.0534,-0.0347,-0.0397,-0.0209,-0.016,-0.0128,-0.0116,0.0019,0.0062,-0.0294,-0.0295,-0.0296,-0.0296,0,-0.0606,-0.062,-0.0696,-0.0781,-0.0826,-0.0893,-0.0977,-0.1017,-0.0999,-0.1007,-0.1003,-0.0919,-0.0776,-0.0644,-0.0473,-0.0363,-0.0125,-0.0129,-0.0081,-0.003,0.0206,0.0242,0.0378,0.0455,0.0034,0.0036,0.0038,0,-0.0607,-0.0635,-0.0757,-0.0825,-0.0873,-0.0969,-0.1034,-0.1058,-0.1078,-0.1017,-0.1018,-0.0885,-0.0751,-0.0478,-0.0275,-0.0059,0.0017,0.0105,0.0097,0.0222,0.0297,0.031,0.0364,0.0174,0.0177,0.0179,0.0181,0,-0.0644,-0.0675,-0.0745,-0.0871,-0.0969,-0.1065,-0.1142,-0.116,-0.114,-0.1102,-0.0973,-0.0849,-0.0576,-0.0291,-0.0022,0.0097,0.0194,0.0166,0.0269,0.0389,0.0432,0.053,0.013,0.0204,0.0202,0.02,0.0199,0.0198,-0.0683,-0.0745,-0.0821,-0.0942,-0.1035,-0.1099,-0.1135,-0.1143,-0.1111,-0.0969,-0.0898,-0.0626,-0.0307,0.0091,0.0224,0.0489,0.0429,0.055,0.0578,0.0576,0.066,0.0327,0.0472,0.0471,0.047,0.047,0.0469,0,-0.0743,-0.0796,-0.0898,-0.1005,-0.1064,-0.1115,-0.1163,-0.1125,-0.1016,-0.0843,-0.0661,-0.0208,0.0128,0.0408,0.0749,0.0886,0.0893,0.0928,0.0937,0.0969,0.0659,0.0675,0.0901,0.0901,0.0901,0.0901,0.0901,0.09,-0.0777,-0.0869,-0.0908,-0.0995,-0.1046,-0.1076,-0.107,-0.0971,-0.083,-0.0475,-0.0156,0.0062,0.0417,0.0892,0.119,0.1206,0.131,0.1295,0.1349,0.1116,0.1082,0.1049,0.1074,0.138,0.1381,0.1649,0.1651,0.1653]}],[{"header":{"parameterUnit":"m.s-1","parameterCategory":2,"la1":30.2991,"la2":30.254,"lo1":-89.0895,"lo2":-89.0444,"dy":0.0017,"dx":0.0017,"nx":28,"ny":28,"refTime":"2023-09-25T03:00:00:Z","depth":"2","parameterNumber":2,"parameterNumberName":"U-component_of_CURRENTS"},"data":[0,0,0,0,0,0,0,0,0,0,0,0,0,0,0,0,0,0,0,0,0,0,0,0,0,0,0,0,0,0,0,0,0,0,0,0,0,0,0,0,0,0,0,0,0,0,0,0,0,0,0,0,0,0,0,0,0,0,-0.2041,-0.2041,0,-0.1942,-0.194,-0.1938,-0.1918,-0.192,-0.1921,-0.1923,-0.202,-0.2021,-0.2022,0,0,0,0,0,0,0,0,0,0,0,0,0,-0.1976,-0.1978,-0.2041,-0.2041,-0.204,-0.1942,-0.194,-0.1938,-0.1918,-0.192,-0.1921,-0.1923,-0.202,-0.2021,-0.2022,0,0,0,0,0,0,0,0,0,0,0,0,0,-0.1946,-0.1979,-0.2041,-0.2025,-0.2023,-0.1943,-0.194,-0.1937,-0.1917,-0.192,-0.1922,-0.1924,-0.2019,-0.2021,-0.2023,-0.1987,0,0,-0.2028,-0.2029,0,0,0,0,0,0,0,0,-0.1948,-0.1947,-0.2028,-0.2026,-0.2024,-0.1952,-0.1953,-0.1967,-0.1917,-0.1948,-0.1923,-0.1925,-0.202,-0.2021,-0.1982,-0.1992,-0.1996,-0.2028,-0.2029,-0.203,-0.203,0,0,0,0,0,0,0,-0.195,-0.195,-0.1993,-0.2027,-0.2025,-0.1942,-0.1941,-0.1953,-0.1969,-0.1946,-0.1946,-0.1948,-0.2019,-0.198,-0.1985,-0.1997,-0.2028,-0.203,-0.2031,-0.2031,-0.1974,-0.1972,0,0,0,0,0,0,-0.199,-0.1954,-0.1997,-0.1991,-0.2,-0.1943,-0.1941,-0.1966,-0.1965,-0.1968,-0.1946,-0.1948,-0.1976,-0.1983,-0.1989,-0.2012,-0.203,-0.2032,-0.2033,-0.1977,-0.1974,-0.1971,0,0,0,0,0,0,-0.1989,-0.1996,-0.2001,-0.1975,-0.1971,-0.1944,-0.197,-0.1963,-0.1939,-0.1965,-0.197,-0.1933,-0.1978,-0.1987,-0.2022,-0.2014,-0.2032,-0.2034,-0.198,-0.1976,-0.1972,-0.2018,0,0,0,0,0,0,-0.1988,-0.1996,-0.2001,-0.1979,-0.1975,-0.2003,-0.1968,-0.196,-0.194,-0.1941,-0.1955,-0.1965,-0.1981,-0.2019,-0.2024,-0.2017,-0.2035,-0.1983,-0.1978,-0.1973,-0.202,-0.2016,-0.2013,0,0,0,0,0,-0.1986,-0.1983,-0.2002,-0.2006,-0.1992,-0.2006,-0.1995,-0.1974,-0.1938,-0.1952,-0.1945,-0.1965,-0.199,-0.202,-0.2026,-0.2019,-0.1985,-0.1979,-0.1974,-0.2021,-0.2017,-0.2013,0,0,0,0,0,0,-0.1957,-0.1981,-0.2002,-0.2009,-0.2038,-0.2007,-0.199,-0.1972,-0.1961,-0.1975,-0.1963,-0.1974,-0.1976,-0.1984,-0.2016,-0.1975,-0.1977,-0.1972,-0.2011,-0.2007,-0.2004,-0.1978,-0.2037,0,0,0,0,0,-0.1959,-0.1963,-0.2,-0.2009,-0.2024,-0.2005,-0.1991,-0.2013,-0.2009,-0.2002,-0.1975,-0.1958,-0.1945,-0.1975,-0.1953,-0.1971,-0.1986,-0.1952,-0.1949,-0.1947,-0.192,-0.1978,-0.198,-0.1952,-0.1952,-0.1952,0,0,-0.1949,-0.1962,-0.1965,-0.2003,-0.2004,-0.1999,-0.2001,-0.2031,-0.2008,-0.2021,-0.1949,-0.1945,-0.1936,-0.1934,-0.1936,-0.196,-0.1957,-0.1939,-0.1939,-0.1913,-0.1973,-0.1976,-0.198,-0.1948,-0.1949,-0.1949,0,0,-0.1918,-0.1956,-0.1946,-0.1958,-0.2004,-0.2014,-0.203,-0.2018,-0.2007,-0.1988,-0.1956,-0.1951,-0.1919,-0.191,-0.1904,-0.1866,-0.1917,-0.1856,-0.1863,-0.1921,-0.1926,-0.193,-0.1954,-0.196,-0.1885,-0.1886,-0.1886,0,-0.1906,-0.1906,-0.1948,-0.1931,-0.1934,-0.2014,-0.2012,-0.2001,-0.199,-0.1985,-0.1983,-0.1894,-0.1891,-0.1886,-0.186,-0.1862,-0.1905,-0.19,-0.1925,-0.193,-0.1933,-0.1957,-0.1963,-0.1887,-0.1887,-0.1887,-0.1887,0,-0.1853,-0.1855,-0.1851,-0.186,-0.1877,-0.191,-0.194,-0.1949,-0.1944,-0.1928,-0.1913,-0.1901,-0.1866,-0.185,-0.1847,-0.1856,-0.1879,-0.1905,-0.1958,-0.1941,-0.1964,-0.197,-0.1889,-0.1889,-0.1888,-0.1888,0,0,-0.1828,-0.1821,-0.1819,-0.182,-0.1859,-0.1883,-0.1877,-0.1913,-0.1917,-0.1898,-0.1884,-0.1823,-0.1842,-0.1828,-0.1837,-0.1875,-0.1926,-0.191,-0.1912,-0.197,-0.2057,-0.1865,-0.1854,-0.2003,-0.2004,-0.2005,-0.2066,0,-0.1788,-0.1756,-0.176,-0.1745,-0.1746,-0.1809,-0.1792,-0.1838,-0.187,-0.1875,-0.1897,-0.1878,-0.1834,-0.1859,-0.1883,-0.1905,-0.1943,-0.1904,-0.2028,-0.203,-0.1895,-0.1853,-0.1726,-0.1751,-0.2072,-0.2073,-0.2074,0,-0.1717,-0.1723,-0.1698,-0.1721,-0.173,-0.1725,-0.1791,-0.1793,-0.1848,-0.1878,-0.1901,-0.1918,-0.1923,-0.1921,-0.1956,-0.1954,-0.1988,-0.2012,-0.2017,-0.1818,-0.1847,-0.1813,-0.175,-0.2084,-0.2083,-0.2082,-0.2081,0,-0.1673,-0.167,-0.1666,-0.1658,-0.1692,-0.1703,-0.1737,-0.1788,-0.1816,-0.1893,-0.1943,-0.196,-0.1986,-0.2026,-0.2003,-0.2027,-0.2061,-0.2116,-0.1972,-0.1961,-0.1851,-0.1825,-0.216,-0.216,-0.216,-0.2159,-0.2159,0,-0.1605,-0.1597,-0.1647,-0.1631,-0.1662,-0.1684,-0.1716,-0.1768,-0.184,-0.1879,-0.1941,-0.1974,-0.2022,-0.2037,-0.2042,-0.1972,-0.2091,-0.1933,-0.1952,-0.1854,-0.1829,-0.2113,-0.2107,-0.2162,-0.2161,-0.2161,-0.216,0,-0.153,-0.1547,-0.1555,-0.161,-0.1626,-0.165,-0.1709,-0.1734,-0.1818,-0.1887,-0.1918,-0.1997,-0.1984,-0.1991,-0.204,-0.1987,-0.1971,-0.1933,-0.1772,-0.1765,-0.184,-0.1835,-0.1805,-0.1798,-0.1793,-0.1788,-0.1784,0,-0.148,-0.1472,-0.1544,-0.1561,-0.158,-0.1616,-0.1636,-0.1716,-0.1753,-0.1871,-0.1905,-0.1931,-0.1895,-0.1845,-0.1767,-0.1713,-0.1828,-0.1577,-0.1551,-0.1775,-0.1799,-0.1803,-0.1805,-0.1456,-0.145,-0.1445,-0.1441,0,-0.1409,-0.1443,-0.147,-0.151,-0.1534,-0.1562,-0.1603,-0.1631,-0.1722,-0.1764,-0.1792,-0.177,-0.1711,-0.1542,-0.1444,-0.1414,-0.1559,-0.1463,-0.179,-0.1517,-0.1437,-0.1464,-0.148,-0.1395,-0.14,-0.1403,-0.1405,-0.1407,-0.1373,-0.1389,-0.1422,-0.1448,-0.1478,-0.1481,-0.1449,-0.15,-0.1509,-0.1528,-0.1593,-0.1499,-0.1481,-0.1204,-0.1136,-0.1087,-0.1206,-0.1195,-0.1216,-0.1242,-0.1142,-0.1051,-0.0919,-0.092,-0.0922,-0.0923,-0.0924,0,-0.1311,-0.1322,-0.1347,-0.1361,-0.1336,-0.1382,-0.1395,-0.1328,-0.1272,-0.1296,-0.125,-0.1079,-0.0951,-0.0946,-0.0783,-0.0739,-0.081,-0.0727,-0.0844,-0.0887,-0.0925,-0.0815,-0.0503,-0.0502,-0.0501,-0.05,0,0,-0.1276,-0.1261,-0.1265,-0.1194,-0.1192,-0.11,-0.1068,-0.1003,-0.0969,-0.0862,-0.08,-0.0847,-0.087,-0.0672,-0.0631,-0.0533,-0.071,-0.0506,-0.0839,-0.1015,-0.1053,-0.118,-0.1053,0,0,0,0,0]},{"header":{"parameterUnit":"m.s-1","parameterCategory":2,"la1":30.2991,"la2":30.254,"lo1":-89.0895,"lo2":-89.0444,"dy":0.0017,"dx":0.0017,"nx":28,"ny":28,"refTime":"2023-09-25T03:00:00:Z","depth":"2","parameterNumber":3,"parameterNumberName":"V-component_of_CURRENTS"},"data":[0,0,0,0,0,0,0,0,0,0,0,0,0,0,0,0,0,0,0,0,0,0,0,0,0,0,0,0,0,0,0,0,0,0,0,0,0,0,0,0,0,0,0,0,0,0,0,0,0,0,0,0,0,0,0,0,0,0,-0.0238,-0.0238,0,-0.017,-0.0169,-0.0168,-0.0136,-0.0136,-0.0136,-0.0136,0.0165,0.0173,0.0181,0,0,0,0,0,0,0,0,0,0,0,0,0,-0.0286,-0.0286,-0.0238,-0.0237,-0.0237,-0.017,-0.0169,-0.0168,-0.0136,-0.0136,-0.0136,-0.0136,0.0162,0.0172,0.0182,0,0,0,0,0,0,0,0,0,0,0,0,0,-0.0246,-0.0286,-0.0238,-0.0214,-0.0211,-0.017,-0.0169,-0.0167,-0.0136,-0.0136,-0.0136,-0.0136,0.0159,0.0171,0.0183,0.0263,0,0,0.022,0.0226,0,0,0,0,0,0,0,0,-0.0248,-0.0244,-0.0218,-0.0215,-0.0212,-0.0162,-0.0075,-0.0012,-0.0136,-0.0163,-0.0136,-0.0136,0.0077,0.0096,0.0107,0.0277,0.029,0.0222,0.0229,0.0234,0.0238,0,0,0,0,0,0,0,-0.0251,-0.0246,-0.021,-0.0217,-0.0213,-0.0187,-0.0182,-0.0064,-0.0038,-0.0161,-0.0158,-0.0152,0.008,0.0095,0.0115,0.0294,0.0221,0.0232,0.024,0.0244,0.0533,0.0534,0,0,0,0,0,0,-0.0264,-0.0249,-0.0212,-0.0208,-0.0232,-0.0186,-0.018,-0.0177,-0.0044,-0.0026,-0.0152,-0.0151,0.0074,0.0101,0.0126,0.0208,0.0234,0.0246,0.0253,0.0533,0.0533,0.0534,0,0,0,0,0,0,-0.0266,-0.0262,-0.0215,-0.0228,-0.022,-0.0186,-0.0182,-0.0176,-0.0157,-0.004,-0.0018,-0.0141,0.0075,0.0109,0.0246,0.0221,0.0251,0.0262,0.0532,0.0533,0.0533,0.0386,0,0,0,0,0,0,-0.0267,-0.0263,-0.0269,-0.0229,-0.022,-0.0169,-0.0182,-0.0174,-0.0154,-0.0152,-0.0022,0.0005,0.0077,0.0227,0.0258,0.0238,0.0272,0.0532,0.0533,0.0533,0.039,0.0381,0.0374,0,0,0,0,0,-0.0269,-0.0275,-0.027,-0.0265,-0.0228,-0.0167,-0.0159,-0.0135,-0.0154,-0.0125,-0.0046,0.0001,0.0251,0.0239,0.0275,0.0257,0.0532,0.0533,0.0533,0.0394,0.0383,0.0374,0,0,0,0,0,0,-0.03,-0.0271,-0.0264,-0.0262,-0.0209,-0.0162,-0.0153,-0.0136,-0.0059,-0.0058,0.0037,0.0073,0.0173,0.0252,0.0235,0.0342,0.0387,0.0395,0.0269,0.026,0.0252,0.0215,0.0282,0,0,0,0,0,-0.031,-0.0309,-0.0258,-0.0254,-0.0235,-0.0196,-0.0176,-0.0148,-0.0079,-0.0051,0.0027,0.0115,0.0202,0.0261,0.0361,0.0446,0.0485,0.045,0.0441,0.0433,0.0429,0.0459,0.0451,0.0536,0.0536,0.0536,0,0,-0.0322,-0.0308,-0.0307,-0.026,-0.0233,-0.0205,-0.0183,-0.0143,-0.0128,-0.002,0.0024,0.0108,0.0224,0.0299,0.0348,0.0363,0.043,0.0434,0.0426,0.0427,0.0458,0.0449,0.0442,0.0537,0.0537,0.0536,0,0,-0.0335,-0.0331,-0.0326,-0.0287,-0.0237,-0.021,-0.0199,-0.0143,-0.0125,-0.0047,0.0005,0.0071,0.0221,0.0266,0.0315,0.0331,0.0389,0.0361,0.0287,0.0314,0.0307,0.03,0.0324,0.0321,0.0348,0.0348,0.0348,0,-0.0351,-0.0343,-0.0308,-0.0288,-0.0273,-0.0219,-0.02,-0.017,-0.0079,-0.0061,-0.004,0.0105,0.019,0.0254,0.0239,0.0305,0.0338,0.0307,0.0298,0.0293,0.0289,0.0315,0.0313,0.0341,0.0342,0.0343,0.0343,0,-0.0347,-0.0343,-0.0337,-0.0309,-0.0279,-0.0249,-0.0204,-0.0178,-0.0162,-0.0127,-0.0057,0.0041,0.012,0.0138,0.0196,0.0205,0.0243,0.0282,0.0308,0.027,0.0302,0.0302,0.0331,0.0333,0.0336,0.0337,0,0,-0.0377,-0.0343,-0.0342,-0.0341,-0.029,-0.0266,-0.0251,-0.021,-0.0214,-0.0144,-0.0138,-0.0041,-0.0008,0.0049,0.0111,0.0122,0.01,0.0176,0.0181,0.0171,0.016,0.0209,0.0215,0.0136,0.0136,0.0136,0.0187,0,-0.0383,-0.0373,-0.0348,-0.0344,-0.0338,-0.0299,-0.0294,-0.0254,-0.022,-0.0195,-0.013,-0.0079,-0.0035,-0.0008,0.0005,0.0101,0.01,0.0083,0.0225,0.0229,0.0253,0.0217,0.0211,0.0259,0.0188,0.0188,0.0189,0,-0.038,-0.0384,-0.0384,-0.0381,-0.0375,-0.0367,-0.0362,-0.0341,-0.0292,-0.0267,-0.0221,-0.0153,-0.0111,-0.008,0.0016,0.0008,0.0061,0.0115,0.0119,0.0218,0.0279,0.0294,0.0264,0.0191,0.0191,0.0191,0.0191,0,-0.042,-0.0408,-0.0422,-0.0416,-0.0401,-0.0406,-0.0399,-0.0363,-0.0357,-0.0312,-0.0301,-0.0221,-0.018,-0.0106,0.0007,0.0011,0.011,0.0137,0.0225,0.023,0.0282,0.0291,0.0173,0.0173,0.0173,0.0173,0.0172,0,-0.0435,-0.0445,-0.0448,-0.0455,-0.0491,-0.0454,-0.0469,-0.0457,-0.0425,-0.0418,-0.0344,-0.0315,-0.0187,-0.0102,-0.0013,0.0116,0.0096,0.0205,0.0243,0.0232,0.0236,0.0234,0.024,0.0175,0.0174,0.0174,0.0173,0,-0.0464,-0.0456,-0.0488,-0.05,-0.0507,-0.0536,-0.0529,-0.0532,-0.0503,-0.0494,-0.0484,-0.0381,-0.0258,-0.0127,0.0014,0.0098,0.0212,0.0255,0.0233,0.0268,0.0314,0.0313,0.0354,0.0356,0.0358,0.036,0.0361,0,-0.0473,-0.0492,-0.0543,-0.0576,-0.0585,-0.0609,-0.0618,-0.0586,-0.0582,-0.0527,-0.0526,-0.0405,-0.0296,-0.0064,0.0105,0.0274,0.0259,0.0353,0.0356,0.0298,0.0331,0.0327,0.0323,0.0361,0.0362,0.0363,0.0364,0,-0.0514,-0.0539,-0.0577,-0.0651,-0.0681,-0.0706,-0.0712,-0.0721,-0.0673,-0.0633,-0.055,-0.0451,-0.022,0.0005,0.0222,0.0309,0.0331,0.0378,0.0326,0.0321,0.031,0.0341,0.0336,0.0372,0.0371,0.037,0.037,0.037,-0.0558,-0.061,-0.0668,-0.0731,-0.0767,-0.0796,-0.0799,-0.0772,-0.0741,-0.0651,-0.0558,-0.0364,-0.0173,0.018,0.0312,0.0428,0.0424,0.0455,0.045,0.0444,0.0441,0.0434,0.0518,0.0518,0.0518,0.0518,0.0518,0,-0.0614,-0.0664,-0.0736,-0.0806,-0.0841,-0.0842,-0.085,-0.0813,-0.0746,-0.0612,-0.0473,-0.0228,0.002,0.0201,0.0411,0.0529,0.0495,0.053,0.0471,0.0464,0.0457,0.0451,0.0533,0.0533,0.0533,0.0534,0,0,-0.0647,-0.073,-0.0765,-0.0848,-0.0881,-0.0889,-0.0881,-0.0805,-0.0694,-0.053,-0.0353,-0.0151,0.0073,0.0224,0.036,0.0461,0.0424,0.0457,0.0436,0.0344,0.0336,0.041,0.0394,0,0,0,0,0]}],[{"header":{"parameterUnit":"m.s-1","parameterCategory":2,"la1":30.2991,"la2":30.254,"lo1":-89.0895,"lo2":-89.0444,"dy":0.0017,"dx":0.0017,"nx":28,"ny":28,"refTime":"2023-09-25T03:00:00:Z","depth":"4","parameterNumber":2,"parameterNumberName":"U-component_of_CURRENTS"},"data":[0,0,0,0,0,0,0,0,0,0,0,0,0,0,0,0,0,0,0,0,0,0,0,0,0,0,0,0,0,0,0,0,0,0,0,0,0,0,0,0,0,0,0,0,0,0,0,0,0,0,0,0,0,0,0,0,0,0,-0.1043,-0.1043,0,-0.1046,-0.1046,-0.1047,-0.1107,-0.1108,-0.1109,-0.111,-0.1148,-0.1148,-0.1148,0,0,0,0,0,0,0,0,0,0,0,0,0,-0.1103,-0.1102,-0.1043,-0.1043,-0.1042,-0.1046,-0.1046,-0.1047,-0.1107,-0.1108,-0.1109,-0.1111,-0.1148,-0.1148,-0.1148,0,0,0,0,0,0,0,0,0,0,0,0,0,-0.1093,-0.1102,-0.1043,-0.1069,-0.1071,-0.1046,-0.1046,-0.1047,-0.1106,-0.1108,-0.111,-0.1111,-0.1148,-0.1148,-0.1148,-0.1115,0,0,-0.1148,-0.1148,0,0,0,0,0,0,0,0,-0.1094,-0.1092,-0.1066,-0.1067,-0.1069,-0.1074,-0.1081,-0.107,-0.1106,-0.1098,-0.111,-0.1112,-0.1122,-0.1124,-0.1128,-0.1117,-0.1118,-0.1148,-0.1148,-0.1148,-0.1148,0,0,0,0,0,0,0,-0.1094,-0.1092,-0.1049,-0.1065,-0.1067,-0.1085,-0.1086,-0.108,-0.1105,-0.1099,-0.1102,-0.1094,-0.1124,-0.1127,-0.1129,-0.1119,-0.1148,-0.1148,-0.1148,-0.1148,-0.115,-0.115,0,0,0,0,0,0,-0.1081,-0.1092,-0.1049,-0.1049,-0.108,-0.1082,-0.1083,-0.1074,-0.1105,-0.1109,-0.1093,-0.1097,-0.1127,-0.1129,-0.113,-0.1164,-0.1148,-0.1148,-0.1148,-0.115,-0.115,-0.115,0,0,0,0,0,0,-0.1083,-0.1077,-0.1049,-0.1067,-0.1064,-0.1079,-0.1069,-0.1073,-0.1095,-0.1099,-0.1105,-0.111,-0.1128,-0.113,-0.1133,-0.1163,-0.1148,-0.1148,-0.115,-0.115,-0.115,-0.1184,0,0,0,0,0,0,-0.1084,-0.1078,-0.1083,-0.1066,-0.1062,-0.104,-0.1067,-0.1072,-0.1083,-0.109,-0.1115,-0.1119,-0.113,-0.1133,-0.1133,-0.1163,-0.1148,-0.115,-0.115,-0.115,-0.1183,-0.1185,-0.1187,0,0,0,0,0,-0.1087,-0.1073,-0.1083,-0.1078,-0.1063,-0.1039,-0.104,-0.1059,-0.1083,-0.1087,-0.1103,-0.112,-0.1135,-0.1132,-0.1133,-0.1163,-0.115,-0.115,-0.115,-0.1182,-0.1185,-0.1187,0,0,0,0,0,0,-0.1093,-0.1076,-0.1088,-0.1069,-0.106,-0.1048,-0.1053,-0.1062,-0.1078,-0.1093,-0.1108,-0.1112,-0.113,-0.1129,-0.1126,-0.1162,-0.115,-0.115,-0.1174,-0.1177,-0.1179,-0.1204,-0.1148,0,0,0,0,0,-0.1096,-0.1091,-0.1072,-0.106,-0.1057,-0.106,-0.1059,-0.1066,-0.1067,-0.1079,-0.1096,-0.1113,-0.1125,-0.1137,-0.1141,-0.115,-0.115,-0.1172,-0.1175,-0.1177,-0.1196,-0.1201,-0.1206,-0.1151,-0.1151,-0.1151,0,0,-0.1096,-0.1085,-0.1084,-0.1064,-0.1065,-0.1067,-0.1066,-0.106,-0.108,-0.1077,-0.1117,-0.1116,-0.1126,-0.1145,-0.1155,-0.1154,-0.1189,-0.1177,-0.1179,-0.1198,-0.1202,-0.1207,-0.1212,-0.1151,-0.1151,-0.1151,0,0,-0.1085,-0.1084,-0.1081,-0.1079,-0.1072,-0.1073,-0.1073,-0.1069,-0.1092,-0.1103,-0.1119,-0.1132,-0.1145,-0.1167,-0.1177,-0.1189,-0.1196,-0.1193,-0.1235,-0.1239,-0.1244,-0.1249,-0.1246,-0.125,-0.1202,-0.1202,-0.1202,0,-0.1094,-0.1088,-0.1074,-0.1075,-0.1087,-0.108,-0.1091,-0.1101,-0.1104,-0.1126,-0.1122,-0.1159,-0.1163,-0.1203,-0.1215,-0.12,-0.1197,-0.1227,-0.1244,-0.1249,-0.1253,-0.1249,-0.1253,-0.1203,-0.1203,-0.1203,-0.1203,0,-0.1078,-0.1094,-0.109,-0.1103,-0.1107,-0.1111,-0.1119,-0.1138,-0.1159,-0.1171,-0.1207,-0.1205,-0.123,-0.1235,-0.1233,-0.1272,-0.1258,-0.1241,-0.1241,-0.1261,-0.1254,-0.1258,-0.1206,-0.1205,-0.1205,-0.1204,0,0,-0.1069,-0.1081,-0.1091,-0.1117,-0.1132,-0.113,-0.1169,-0.1197,-0.1229,-0.1241,-0.128,-0.1305,-0.1302,-0.1313,-0.131,-0.1323,-0.1341,-0.1303,-0.1302,-0.1308,-0.1348,-0.1239,-0.1233,-0.1327,-0.1328,-0.1329,-0.1328,0,-0.1081,-0.1096,-0.1104,-0.1147,-0.1164,-0.1187,-0.1221,-0.1247,-0.1268,-0.1296,-0.1313,-0.1334,-0.1332,-0.1338,-0.1354,-0.1341,-0.1355,-0.1343,-0.1322,-0.1322,-0.123,-0.1235,-0.1332,-0.1331,-0.1332,-0.1333,-0.1333,0,-0.1083,-0.1098,-0.1134,-0.1188,-0.1198,-0.1221,-0.1283,-0.1307,-0.1343,-0.1358,-0.1386,-0.1383,-0.1416,-0.1392,-0.1411,-0.1403,-0.1388,-0.1376,-0.1375,-0.1271,-0.122,-0.1309,-0.1339,-0.1339,-0.1338,-0.1338,-0.1338,0,-0.109,-0.1134,-0.1169,-0.1186,-0.1228,-0.1262,-0.129,-0.1331,-0.1356,-0.139,-0.1404,-0.1433,-0.1441,-0.144,-0.1422,-0.1417,-0.1424,-0.1405,-0.1299,-0.1291,-0.1377,-0.1372,-0.142,-0.142,-0.142,-0.142,-0.142,0,-0.1099,-0.1134,-0.1177,-0.1195,-0.1241,-0.1272,-0.1319,-0.1347,-0.1384,-0.1408,-0.143,-0.1444,-0.1454,-0.1454,-0.1434,-0.1374,-0.1433,-0.1312,-0.1285,-0.1388,-0.1384,-0.1379,-0.1374,-0.142,-0.142,-0.142,-0.142,0,-0.1087,-0.1118,-0.1165,-0.1225,-0.1239,-0.1271,-0.1321,-0.1344,-0.139,-0.1418,-0.1429,-0.1459,-0.1446,-0.1442,-0.1428,-0.1375,-0.1334,-0.1299,-0.1413,-0.1391,-0.1198,-0.1195,-0.1177,-0.1173,-0.117,-0.1167,-0.1165,0,-0.1066,-0.109,-0.1171,-0.1189,-0.1213,-0.1258,-0.1278,-0.1334,-0.1353,-0.1418,-0.1421,-0.1434,-0.1438,-0.1332,-0.1338,-0.1277,-0.126,-0.1234,-0.1218,-0.1198,-0.1174,-0.1176,-0.1177,-0.116,-0.1159,-0.1158,-0.1157,0,-0.1029,-0.1078,-0.1115,-0.1153,-0.1184,-0.1211,-0.1248,-0.1256,-0.1318,-0.1384,-0.1365,-0.1332,-0.131,-0.1265,-0.1219,-0.1184,-0.1246,-0.12,-0.1207,-0.1192,-0.1177,-0.1157,-0.1162,-0.1146,-0.1148,-0.1149,-0.115,0,-0.1004,-0.1024,-0.1074,-0.1094,-0.1139,-0.1137,-0.117,-0.118,-0.1202,-0.1279,-0.1274,-0.1279,-0.1313,-0.1217,-0.1184,-0.1124,-0.1099,-0.1059,-0.1072,-0.1085,-0.1048,-0.1015,-0.0915,0,0,0,0,0,-0.0959,-0.0964,-0.0992,-0.1012,-0.1058,-0.1062,-0.113,-0.1166,-0.1241,-0.1197,-0.1227,-0.1196,-0.1126,-0.1127,-0.1038,-0.1125,-0.11,-0.1016,-0.1062,-0.1084,-0.1097,-0.1058,0,0,0,0,0,0,-0.0927,-0.0959,-0.0965,-0.093,-0.0918,-0.0941,-0.0978,-0.103,-0.1009,-0.1092,-0.1055,-0.1111,-0.1053,-0.1144,-0.1005,-0.1003,-0.1004,-0.1023,-0.102,-0.1077,-0.1089,-0.1099,-0.1064,0,0,0,0,0]},{"header":{"parameterUnit":"m.s-1","parameterCategory":2,"la1":30.2991,"la2":30.254,"lo1":-89.0895,"lo2":-89.0444,"dy":0.0017,"dx":0.0017,"nx":28,"ny":28,"refTime":"2023-09-25T03:00:00:Z","depth":"4","parameterNumber":3,"parameterNumberName":"V-component_of_CURRENTS"},"data":[0,0,0,0,0,0,0,0,0,0,0,0,0,0,0,0,0,0,0,0,0,0,0,0,0,0,0,0,0,0,0,0,0,0,0,0,0,0,0,0,0,0,0,0,0,0,0,0,0,0,0,0,0,0,0,0,0,0,-0.0227,-0.0227,0,-0.0211,-0.021,-0.021,-0.0193,-0.0193,-0.0193,-0.0194,-0.0151,-0.015,-0.0148,0,0,0,0,0,0,0,0,0,0,0,0,0,-0.0211,-0.0211,-0.0227,-0.0227,-0.0227,-0.0211,-0.021,-0.021,-0.0193,-0.0193,-0.0194,-0.0194,-0.0151,-0.015,-0.0148,0,0,0,0,0,0,0,0,0,0,0,0,0,-0.0205,-0.0211,-0.0227,-0.022,-0.0219,-0.0211,-0.021,-0.0209,-0.0193,-0.0193,-0.0194,-0.0194,-0.0152,-0.015,-0.0148,-0.0133,0,0,-0.0142,-0.0142,0,0,0,0,0,0,0,0,-0.0206,-0.0205,-0.022,-0.022,-0.022,-0.0208,-0.0189,-0.0184,-0.0193,-0.0199,-0.0194,-0.0194,-0.017,-0.0166,-0.0158,-0.0131,-0.0129,-0.0142,-0.0141,-0.014,-0.014,0,0,0,0,0,0,0,-0.0206,-0.0206,-0.0216,-0.0221,-0.022,-0.0207,-0.0206,-0.0188,-0.018,-0.0198,-0.0198,-0.0202,-0.0169,-0.016,-0.0157,-0.0128,-0.0142,-0.0141,-0.0139,-0.0139,-0.007,-0.0069,0,0,0,0,0,0,-0.0217,-0.0206,-0.0217,-0.0216,-0.0217,-0.0207,-0.0206,-0.0208,-0.0181,-0.0178,-0.0202,-0.0202,-0.0163,-0.0159,-0.0155,-0.0121,-0.014,-0.0139,-0.0137,-0.0071,-0.007,-0.0069,0,0,0,0,0,0,-0.0217,-0.0218,-0.0218,-0.0214,-0.0214,-0.0208,-0.021,-0.0208,-0.0207,-0.0185,-0.0181,-0.0205,-0.0163,-0.0158,-0.014,-0.012,-0.0138,-0.0136,-0.0072,-0.007,-0.007,-0.0061,0,0,0,0,0,0,-0.0216,-0.0218,-0.0226,-0.0215,-0.0214,-0.0219,-0.021,-0.0207,-0.0211,-0.021,-0.0186,-0.0182,-0.0163,-0.0143,-0.0138,-0.0117,-0.0135,-0.0072,-0.0071,-0.007,-0.0062,-0.006,-0.0058,0,0,0,0,0,-0.0216,-0.0222,-0.0226,-0.0228,-0.0224,-0.022,-0.0218,-0.0211,-0.0211,-0.0211,-0.0191,-0.0183,-0.0131,-0.0141,-0.0135,-0.0114,-0.0073,-0.0071,-0.007,-0.0063,-0.006,-0.0058,0,0,0,0,0,0,-0.0221,-0.0222,-0.0225,-0.0233,-0.0232,-0.0219,-0.0218,-0.0218,-0.0202,-0.02,-0.0179,-0.0172,-0.0148,-0.0135,-0.0147,-0.009,-0.0098,-0.0096,-0.0095,-0.0092,-0.009,-0.0088,-0.0133,0,0,0,0,0,-0.0227,-0.0233,-0.0231,-0.024,-0.0237,-0.0231,-0.023,-0.0226,-0.0213,-0.0207,-0.0187,-0.0162,-0.0135,-0.012,-0.0098,-0.007,-0.0057,-0.0051,-0.0049,-0.0047,-0.0041,-0.0004,0.0003,-0.0064,-0.0064,-0.0064,0,0,-0.0234,-0.0236,-0.024,-0.0242,-0.0237,-0.0227,-0.0229,-0.0228,-0.0215,-0.0204,-0.0176,-0.0159,-0.0128,-0.0094,-0.0081,-0.0081,-0.0023,-0.0045,-0.0044,-0.0039,-0.0001,0.0005,0.0011,-0.0063,-0.0063,-0.0063,0,0,-0.0241,-0.0248,-0.0249,-0.0244,-0.0244,-0.0235,-0.0239,-0.0225,-0.0213,-0.0193,-0.0173,-0.0141,-0.0112,-0.0072,-0.0051,-0.0024,-0.0018,-0.0024,-0.0004,0.0033,0.0038,0.0044,0.0059,0.0066,-0.0017,-0.0017,-0.0017,0,-0.0249,-0.0251,-0.025,-0.0243,-0.0241,-0.0239,-0.0233,-0.0215,-0.0197,-0.0182,-0.0184,-0.012,-0.0092,-0.0037,-0.0022,-0.0016,-0.0011,-0.0017,0.0036,0.0041,0.0047,0.0061,0.0068,-0.0016,-0.0016,-0.0017,-0.0017,0,-0.0248,-0.025,-0.0248,-0.0238,-0.0233,-0.023,-0.0209,-0.0198,-0.0187,-0.0167,-0.0125,-0.0085,-0.0047,-0.0027,-0.0014,0.0041,0.0026,0.0028,0.0028,0.0054,0.0067,0.0075,-0.0016,-0.0016,-0.0016,-0.0016,0,0,-0.0265,-0.0251,-0.0252,-0.0253,-0.0232,-0.0232,-0.0201,-0.0177,-0.0167,-0.0128,-0.0101,-0.0033,-0.0021,0.0004,0.0028,0.0071,0.0118,0.0064,0.0065,0.0076,0.0177,0.016,0.0166,0.0121,0.0122,0.0123,0.0167,0,-0.0268,-0.0264,-0.0249,-0.0246,-0.0243,-0.0223,-0.0201,-0.0176,-0.0153,-0.0124,-0.0064,-0.0034,-0.0006,0.0004,0.0057,0.0097,0.0139,0.0105,0.0152,0.0154,0.0134,0.0175,0.0128,0.0173,0.0174,0.0176,0.0176,0,-0.0269,-0.0271,-0.027,-0.0262,-0.0258,-0.0252,-0.0233,-0.0212,-0.0159,-0.0139,-0.0086,-0.0054,0.0024,0.0032,0.0134,0.0103,0.0144,0.0179,0.0181,0.0169,0.0151,0.0145,0.019,0.0189,0.0188,0.0187,0.0186,0,-0.0295,-0.0285,-0.0293,-0.0288,-0.0273,-0.027,-0.0261,-0.0221,-0.021,-0.0153,-0.0143,-0.0053,-0.0018,0.0057,0.0134,0.013,0.023,0.0235,0.0261,0.0259,0.0255,0.0249,0.0311,0.0311,0.0311,0.0311,0.0311,0,-0.0302,-0.0309,-0.0312,-0.0318,-0.0335,-0.0306,-0.0312,-0.0288,-0.0252,-0.0239,-0.0161,-0.0131,-0.0012,0.0057,0.0128,0.0213,0.0228,0.0275,0.0279,0.0255,0.0249,0.0259,0.0253,0.0312,0.0312,0.0312,0.0311,0,-0.0325,-0.0322,-0.0344,-0.0348,-0.0351,-0.0368,-0.0362,-0.0362,-0.0323,-0.0304,-0.0289,-0.0186,-0.0088,0.0018,0.0141,0.0197,0.0283,0.0306,0.0259,0.0258,0.0288,0.0281,0.0351,0.0351,0.0351,0.0351,0.0351,0,-0.0332,-0.0347,-0.0385,-0.0412,-0.0418,-0.0434,-0.0443,-0.0408,-0.0402,-0.0338,-0.0328,-0.0229,-0.0152,0.0015,0.0126,0.0263,0.0282,0.0316,0.033,0.03,0.0297,0.029,0.0284,0.0351,0.0351,0.0351,0.0351,0,-0.0357,-0.0383,-0.0412,-0.0471,-0.0498,-0.0518,-0.0521,-0.0523,-0.0476,-0.0439,-0.0348,-0.0242,-0.0129,0.0017,0.0117,0.0215,0.0294,0.0317,0.0318,0.0332,0.0301,0.0296,0.029,0.0351,0.0351,0.0351,0.0351,0,-0.0389,-0.0428,-0.0479,-0.0525,-0.0568,-0.0591,-0.0584,-0.0552,-0.053,-0.0441,-0.0411,-0.0268,-0.0169,-0.0009,0.0083,0.018,0.0213,0.0242,0.0248,0.0249,0.0209,0.0155,0.0175,0,0,0,0,0,-0.0413,-0.0461,-0.0521,-0.0577,-0.062,-0.0632,-0.0631,-0.0611,-0.0559,-0.05,-0.045,-0.0336,-0.0155,-0.0065,0.0031,0.0064,0.0205,0.0176,0.0234,0.0351,0.0351,0.032,0,0,0,0,0,0,-0.0434,-0.0499,-0.0532,-0.0607,-0.0644,-0.068,-0.0678,-0.0642,-0.059,-0.052,-0.0415,-0.0325,-0.0147,-0.0212,0.0029,0.0061,0.0108,0.0275,0.0277,0.0351,0.0351,0.0351,0.0319,0,0,0,0,0]}]]